Tracking 28790 objects as of 18-Apr-2024
HD Live streaming from Space Station
objects crossing your sky now

TITAN 3C TRANSTAGE DEB

Track TITAN 3C TRANSTAGE DEB now!


NORAD ID: 38703
Int'l Code: 1968-081AD
Perigee: 33,388.6 km
Apogee: 35,430.1 km
Inclination: 0.9 °
Period: 1,366.0 minutes
Semi major axis: 40780 km
RCS: 0.003 m2 (small)
Launch date: September 26, 1968
Source: United States (US)
Launch site: AIR FORCE EASTERN TEST RANGE (AFETR)

Note: This is SATELLITE DEBRIS
Your satellite tracking list
Your tracking list is empty




NASA's NSSDC Master Catalog

Two Line Element Set (TLE):
1 38703U 68081AD  24107.86545265 -.00000131  00000-0  00000-0 0  9995
2 38703   0.9295  88.5023 0250304  45.1287 228.4515  1.05420997 39124
Source of the keplerian elements: AFSPC